Time,TemperatureF,DewpointF,PressureIn,WindDirection,WindDirectionDegrees,WindSpeedMPH,WindSpeedGustMPH,Humidity,HourlyPrecipIn,Conditions,Clouds,dailyrainin,SoftwareType,DateUTC
2013-11-04 00:12:00,44.0,-99.9,-100.00,North,-999,-999.0,-999.0,-999,0.00,,,0.00,,2013-11-04 06:12:00,
2013-11-04 00:23:00,44.0,-99.9,-100.00,North,-999,-999.0,-999.0,-999,0.00,,,0.00,,2013-11-04 06:23:00,
2013-11-04 00:30:00,44.0,-99.9,-100.00,North,-999,-999.0,-999.0,-999,0.00,,,0.00,,2013-11-04 06:30:00,
2013-11-04 01:11:00,44.0,-99.9,-100.00,North,-999,-999.0,-999.0,-999,0.00,,,0.00,,2013-11-04 07:11:00,
2013-11-04 01:22:00,44.0,-99.9,-100.00,North,-999,-999.0,-999.0,-999,0.00,,,0.00,,2013-11-04 07:22:00,
2013-11-04 01:30:00,44.0,-99.9,-100.00,North,-999,-999.0,-999.0,-999,0.00,,,0.00,,2013-11-04 07:30:00,
2013-11-04 02:12:00,44.0,-99.9,-100.00,North,-999,-999.0,-999.0,-999,0.00,,,0.00,,2013-11-04 08:12:00,
2013-11-04 02:22:00,44.0,-99.9,-100.00,North,-999,-999.0,-999.0,-999,0.00,,,0.00,,2013-11-04 08:22:00,
2013-11-04 02:30:00,45.0,-99.9,-100.00,North,-999,-999.0,-999.0,-999,0.00,,,0.00,,2013-11-04 08:30:00,
2013-11-04 03:12:00,45.0,-99.9,-100.00,North,-999,-999.0,-999.0,-999,0.00,,,0.00,,2013-11-04 09:12:00,
2013-11-04 03:22:00,45.0,-99.9,-100.00,North,-999,-999.0,-999.0,-999,0.00,,,0.00,,2013-11-04 09:22:00,
2013-11-04 03:30:00,45.0,-99.9,-100.00,North,-999,-999.0,-999.0,-999,0.00,,,0.00,,2013-11-04 09:30:00,
2013-11-04 04:12:00,45.0,-99.9,-100.00,North,-999,-999.0,-999.0,-999,0.00,,,0.00,,2013-11-04 10:12:00,
2013-11-04 04:23:00,45.0,-99.9,-100.00,North,-999,-999.0,-999.0,-999,0.00,,,0.00,,2013-11-04 10:23:00,
2013-11-04 04:30:00,45.0,-99.9,-100.00,North,-999,-999.0,-999.0,-999,0.00,,,0.00,,2013-11-04 10:30:00,
2013-11-04 05:12:00,45.0,-99.9,-100.00,North,-999,-999.0,-999.0,-999,0.00,,,0.00,,2013-11-04 11:12:00,
2013-11-04 05:22:00,45.0,-99.9,-100.00,North,-999,-999.0,-999.0,-999,0.00,,,0.00,,2013-11-04 11:22:00,
2013-11-04 05:30:00,45.0,-99.9,-100.00,North,-999,-999.0,-999.0,-999,0.00,,,0.00,,2013-11-04 11:30:00,
2013-11-04 06:12:00,45.0,-99.9,-100.00,North,-999,-999.0,-999.0,-999,0.00,,,0.00,,2013-11-04 12:12:00,
2013-11-04 06:22:00,45.0,-99.9,-100.00,North,-999,-999.0,-999.0,-999,0.00,,,0.00,,2013-11-04 12:22:00,
2013-11-04 06:30:00,45.0,-99.9,-100.00,North,-999,-999.0,-999.0,-999,0.00,,,0.00,,2013-11-04 12:30:00,
2013-11-04 07:12:00,45.0,-99.9,-100.00,North,-999,-999.0,-999.0,-999,0.00,,,0.00,,2013-11-04 13:12:00,
2013-11-04 07:22:00,45.0,-99.9,-100.00,North,-999,-999.0,-999.0,-999,0.00,,,0.00,,2013-11-04 13:22:00,
2013-11-04 07:30:00,45.0,-99.9,-100.00,North,-999,-999.0,-999.0,-999,0.00,,,0.00,,2013-11-04 13:30:00,
2013-11-04 08:11:00,45.0,-99.9,-100.00,North,-999,-999.0,-999.0,-999,0.00,,,0.00,,2013-11-04 14:11:00,
2013-11-04 08:22:00,45.0,-99.9,-100.00,North,-999,-999.0,-999.0,-999,0.00,,,0.00,,2013-11-04 14:22:00,
2013-11-04 08:30:00,45.0,-99.9,-100.00,North,-999,-999.0,-999.0,-999,0.00,,,0.00,,2013-11-04 14:30:00,
2013-11-04 09:11:00,45.0,-99.9,-100.00,North,-999,-999.0,-999.0,-999,0.00,,,0.00,,2013-11-04 15:11:00,
2013-11-04 09:22:00,45.0,-99.9,-100.00,North,-999,-999.0,-999.0,-999,0.00,,,0.00,,2013-11-04 15:22:00,
2013-11-04 09:30:00,45.0,-99.9,-100.00,North,-999,-999.0,-999.0,-999,0.00,,,0.00,,2013-11-04 15:30:00,
2013-11-04 10:13:00,45.0,-99.9,-100.00,North,-999,-999.0,-999.0,-999,0.00,,,0.00,,2013-11-04 16:13:00,
2013-11-04 10:24:00,45.0,-99.9,-100.00,North,-999,-999.0,-999.0,-999,0.00,,,0.00,,2013-11-04 16:24:00,
2013-11-04 10:30:00,45.0,-99.9,-100.00,North,-999,-999.0,-999.0,-999,0.00,,,0.00,,2013-11-04 16:30:00,
2013-11-04 11:12:00,45.0,-99.9,-100.00,North,-999,-999.0,-999.0,-999,0.00,,,0.00,,2013-11-04 17:12:00,
2013-11-04 11:22:00,45.0,-99.9,-100.00,North,-999,-999.0,-999.0,-999,0.00,,,0.00,,2013-11-04 17:22:00,
2013-11-04 11:30:00,42.0,-99.9,-100.00,North,-999,-999.0,-999.0,-999,0.02,,,0.02,,2013-11-04 17:30:00,
2013-11-04 12:12:00,42.0,-99.9,-100.00,North,-999,-999.0,-999.0,-999,0.02,,,0.02,,2013-11-04 18:12:00,
2013-11-04 12:23:00,42.0,-99.9,-100.00,North,-999,-999.0,-999.0,-999,0.02,,,0.02,,2013-11-04 18:23:00,
2013-11-04 12:30:00,42.0,-99.9,-100.00,North,-999,-999.0,-999.0,-999,0.06,,,0.08,,2013-11-04 18:30:00,
2013-11-04 13:12:00,42.0,-99.9,-100.00,North,-999,-999.0,-999.0,-999,0.06,,,0.08,,2013-11-04 19:12:00,
2013-11-04 13:22:00,42.0,-99.9,-100.00,North,-999,-999.0,-999.0,-999,0.06,,,0.08,,2013-11-04 19:22:00,
2013-11-04 13:30:00,43.0,-99.9,-100.00,North,-999,-999.0,-999.0,-999,0.06,,,0.14,,2013-11-04 19:30:00,
2013-11-04 14:11:00,43.0,-99.9,-100.00,North,-999,-999.0,-999.0,-999,0.06,,,0.14,,2013-11-04 20:11:00,
2013-11-04 14:22:00,43.0,-99.9,-100.00,North,-999,-999.0,-999.0,-999,0.06,,,0.14,,2013-11-04 20:22:00,
2013-11-04 14:30:00,43.0,-99.9,-100.00,North,-999,-999.0,-999.0,-999,0.04,,,0.18,,2013-11-04 20:30:00,
2013-11-04 15:12:00,43.0,-99.9,-100.00,North,-999,-999.0,-999.0,-999,0.04,,,0.18,,2013-11-04 21:12:00,
2013-11-04 15:22:00,43.0,-99.9,-100.00,North,-999,-999.0,-999.0,-999,0.04,,,0.18,,2013-11-04 21:22:00,
2013-11-04 15:30:00,44.0,-99.9,-100.00,North,-999,-999.0,-999.0,-999,0.00,,,0.18,,2013-11-04 21:30:00,
2013-11-04 16:14:00,44.0,-99.9,-100.00,North,-999,-999.0,-999.0,-999,0.00,,,0.18,,2013-11-04 22:14:00,
2013-11-04 16:23:00,44.0,-99.9,-100.00,North,-999,-999.0,-999.0,-999,0.00,,,0.18,,2013-11-04 22:23:00,
2013-11-04 16:30:00,43.0,-99.9,-100.00,North,-999,-999.0,-999.0,-999,0.01,,,0.19,,2013-11-04 22:30:00,
2013-11-04 17:13:00,43.0,-99.9,-100.00,North,-999,-999.0,-999.0,-999,0.01,,,0.19,,2013-11-04 23:13:00,
2013-11-04 17:23:00,43.0,-99.9,-100.00,North,-999,-999.0,-999.0,-999,0.01,,,0.19,,2013-11-04 23:23:00,
2013-11-04 17:30:00,42.0,-99.9,-100.00,North,-999,-999.0,-999.0,-999,0.00,,,0.19,,2013-11-04 23:30:00,
2013-11-04 18:12:00,42.0,-99.9,-100.00,North,-999,-999.0,-999.0,-999,0.00,,,0.19,,2013-11-05 00:12:00,
2013-11-04 18:22:00,42.0,-99.9,-100.00,North,-999,-999.0,-999.0,-999,0.00,,,0.19,,2013-11-05 00:22:00,
2013-11-04 18:30:00,39.0,-99.9,-100.00,North,-999,-999.0,-999.0,-999,0.00,,,0.19,,2013-11-05 00:30:00,
2013-11-04 19:12:00,39.0,-99.9,-100.00,North,-999,-999.0,-999.0,-999,0.00,,,0.19,,2013-11-05 01:12:00,
2013-11-04 19:22:00,39.0,-99.9,-100.00,North,-999,-999.0,-999.0,-999,0.00,,,0.19,,2013-11-05 01:22:00,
2013-11-04 19:30:00,38.0,-99.9,-100.00,North,-999,-999.0,-999.0,-999,0.00,,,0.19,,2013-11-05 01:30:00,
2013-11-04 20:12:00,38.0,-99.9,-100.00,North,-999,-999.0,-999.0,-999,0.00,,,0.19,,2013-11-05 02:12:00,
2013-11-04 20:23:00,38.0,-99.9,-100.00,North,-999,-999.0,-999.0,-999,0.00,,,0.19,,2013-11-05 02:23:00,
2013-11-04 20:30:00,36.0,-99.9,-100.00,North,-999,-999.0,-999.0,-999,0.00,,,0.19,,2013-11-05 02:30:00,
2013-11-04 21:12:00,36.0,-99.9,-100.00,North,-999,-999.0,-999.0,-999,0.00,,,0.19,,2013-11-05 03:12:00,
2013-11-04 21:22:00,36.0,-99.9,-100.00,North,-999,-999.0,-999.0,-999,0.00,,,0.19,,2013-11-05 03:22:00,
2013-11-04 21:30:00,32.0,-99.9,-100.00,North,-999,-999.0,-999.0,-999,0.00,,,0.19,,2013-11-05 03:30:00,
2013-11-04 22:14:00,32.0,-99.9,-100.00,North,-999,-999.0,-999.0,-999,0.00,,,0.19,,2013-11-05 04:14:00,
2013-11-04 22:23:00,32.0,-99.9,-100.00,North,-999,-999.0,-999.0,-999,0.00,,,0.19,,2013-11-05 04:23:00,
2013-11-04 22:30:00,33.0,-99.9,-100.00,North,-999,-999.0,-999.0,-999,0.00,,,0.19,,2013-11-05 04:30:00,
2013-11-04 23:13:00,33.0,-99.9,-100.00,North,-999,-999.0,-999.0,-999,0.00,,,0.19,,2013-11-05 05:13:00,
2013-11-04 23:23:00,33.0,-99.9,-100.00,North,-999,-999.0,-999.0,-999,0.00,,,0.19,,2013-11-05 05:23:00,
2013-11-04 23:30:00,33.0,-99.9,-100.00,North,-999,-999.0,-999.0,-999,0.00,,,0.19,,2013-11-05 05:30:00,